When you browse on this site, cookies collect data to enhance your experience and personalize the content and advertising you see.
Visit our Privacy Policy to learn more. By continuing to use the site, you agree to this use of cookies and data.
  • In Czech Republic
  • List of Countries
  • For 7 days
  • Water Temperature
  • Satellite Maps
  • Weather Map
  • Weather Widgets
  • user-avatar
    Login

    Hourly Weather Walnut Creek

    Today, 19 April, Friday

    Time Temperature Precipitation Wind Pressure Humidity
    00:00 +18°C° 0 mm 1 mps 751 mmHg 69%
    01:00 +18°C° 0 mm 1 mps 751 mmHg 70%
    02:00 +16°C° 0 mm 1 mps 751 mmHg 71%
    03:00 +16°C° 0 mm 1 mps 750 mmHg 71%
    04:00 +15°C° 0 mm 1 mps 750 mmHg 72%
    05:00 +15°C° 0 mm 0 mps 750 mmHg 70%
    06:00 +16°C° 0 mm 0 mps 750 mmHg 68%
    07:00 +16°C° 0 mm 0 mps 750 mmHg 66%
    08:00 +21°C° 0 mm 1 mps 750 mmHg 60%
    09:00 +23°C° 0 mm 1 mps 749 mmHg 54%
    10:00 +25°C° 0 mm 1 mps 749 mmHg 48%
    11:00 +26°C° 0 mm 2 mps 749 mmHg 45%
    12:00 +27°C° 0 mm 2 mps 749 mmHg 41%
    13:00 +28°C° 0 mm 3 mps 748 mmHg 38%
    14:00 +28°C° 0 mm 3 mps 748 mmHg 39%
    15:00 +27°C° 0 mm 3 mps 748 mmHg 40%
    16:00 +26°C° 0 mm 4 mps 747 mmHg 42%
    17:00 +24°C° 0 mm 3 mps 747 mmHg 49%
    18:00 +21°C° 0 mm 3 mps 747 mmHg 55%
    19:00 +19°C° 0 mm 3 mps 747 mmHg 62%
    20:00 +18°C° 0 mm 3 mps 747 mmHg 66%
    21:00 +17°C° 0 mm 3 mps 747 mmHg 70%
    22:00 +16°C° 0 mm 3 mps 747 mmHg 75%
    23:00 +14°C° 0 mm 3 mps 747 mmHg 77%

    Tomorrow, 20 April, Saturday

    Time Temperature Precipitation Wind Pressure Humidity
    00:00 +14°C° 0 mm 3 mps 747 mmHg 80%
    01:00 +13°C° 0 mm 3 mps 747 mmHg 83%
    02:00 +13°C° 0 mm 3 mps 747 mmHg 85%
    03:00 +13°C° 0 mm 3 mps 747 mmHg 86%
    04:00 +12°C° 0 mm 3 mps 747 mmHg 87%
    05:00 +13°C° 0 mm 3 mps 747 mmHg 86%
    06:00 +13°C° 0 mm 3 mps 747 mmHg 85%
    07:00 +13°C° 0 mm 3 mps 748 mmHg 84%
    08:00 +14°C° 0 mm 4 mps 748 mmHg 79%
    09:00 +15°C° 0 mm 4 mps 749 mmHg 74%
    10:00 +16°C° 0 mm 5 mps 749 mmHg 69%
    11:00 +17°C° 0 mm 5 mps 749 mmHg 61%
    12:00 +19°C° 0 mm 6 mps 749 mmHg 54%
    13:00 +20°C° 0 mm 7 mps 749 mmHg 46%
    14:00 +19°C° 0 mm 6 mps 749 mmHg 48%
    15:00 +17°C° 0 mm 6 mps 748 mmHg 50%
    16:00 +17°C° 0 mm 6 mps 748 mmHg 51%
    17:00 +15°C° 0 mm 5 mps 748 mmHg 56%
    18:00 +14°C° 0 mm 5 mps 748 mmHg 62%
    19:00 +13°C° 0 mm 4 mps 749 mmHg 67%
    20:00 +12°C° 0 mm 3 mps 749 mmHg 69%
    21:00 +13°C° 0 mm 2 mps 750 mmHg 72%
    22:00 +12°C° 0 mm 2 mps 750 mmHg 74%
    23:00 +12°C° 0 mm 2 mps 750 mmHg 75%

    Day after tomorrow, 21 April, Sunday

    Time Temperature Precipitation Wind Pressure Humidity
    00:00 +12°C° 0 mm 1 mps 750 mmHg 77%
    01:00 +11°C° 0 mm 1 mps 751 mmHg 78%
    02:00 +11°C° 0 mm 1 mps 751 mmHg 79%
    03:00 +11°C° 0 mm 1 mps 751 mmHg 81%
    04:00 +10°C° 0 mm 0 mps 751 mmHg 82%
    05:00 +11°C° 0 mm 0 mps 751 mmHg 80%
    06:00 +12°C° 0 mm 0 mps 752 mmHg 77%
    07:00 +12°C° 0 mm 0 mps 752 mmHg 75%
    08:00 +16°C° 0 mm 1 mps 752 mmHg 64%
    09:00 +19°C° 0 mm 1 mps 752 mmHg 53%
    10:00 +20°C° 0 mm 2 mps 752 mmHg 42%
    11:00 +21°C° 0 mm 3 mps 752 mmHg 38%
    12:00 +24°C° 0 mm 3 mps 752 mmHg 34%
    13:00 +25°C° 0 mm 4 mps 752 mmHg 30%
    14:00 +25°C° 0 mm 4 mps 751 mmHg 31%
    15:00 +25°C° 0 mm 4 mps 751 mmHg 33%
    16:00 +26°C° 0 mm 4 mps 751 mmHg 35%
    17:00 +22°C° 0 mm 3 mps 751 mmHg 43%
    18:00 +20°C° 0 mm 3 mps 751 mmHg 52%
    19:00 +18°C° 0 mm 2 mps 751 mmHg 60%
    20:00 +17°C° 0 mm 2 mps 752 mmHg 63%
    21:00 +16°C° 0 mm 2 mps 752 mmHg 66%
    22:00 +15°C° 0 mm 2 mps 752 mmHg 70%
    23:00 +15°C° 0 mm 1 mps 752 mmHg 72%

    22 April, Monday

    Time Temperature Precipitation Wind Pressure Humidity
    00:00 +14°C° 0 mm 1 mps 752 mmHg 73%
    01:00 +14°C° 0 mm 1 mps 752 mmHg 75%
    02:00 +13°C° 0 mm 1 mps 752 mmHg 76%
    03:00 +13°C° 0 mm 1 mps 752 mmHg 76%
    04:00 +12°C° 0 mm 0 mps 752 mmHg 77%
    05:00 +13°C° 0 mm 0 mps 752 mmHg 70%
    06:00 +13°C° 0 mm 0 mps 752 mmHg 64%
    07:00 +14°C° 0 mm 0 mps 752 mmHg 58%
    08:00 +19°C° 0 mm 1 mps 752 mmHg 50%
    09:00 +20°C° 0 mm 2 mps 752 mmHg 42%
    10:00 +24°C° 0 mm 2 mps 752 mmHg 34%
    11:00 +25°C° 0 mm 2 mps 752 mmHg 31%
    12:00 +27°C° 0 mm 3 mps 752 mmHg 28%
    13:00 +29°C° 0 mm 3 mps 751 mmHg 25%
    14:00 +29°C° 0 mm 3 mps 751 mmHg 25%
    15:00 +29°C° 0 mm 3 mps 751 mmHg 26%
    16:00 +29°C° 0 mm 3 mps 750 mmHg 26%
    17:00 +27°C° 0 mm 2 mps 750 mmHg 33%
    18:00 +25°C° 0 mm 2 mps 750 mmHg 41%
    19:00 +22°C° 0 mm 1 mps 750 mmHg 48%
    20:00 +21°C° 0 mm 1 mps 750 mmHg 52%
    21:00 +20°C° 0 mm 1 mps 751 mmHg 56%
    22:00 +19°C° 0 mm 1 mps 751 mmHg 60%
    23:00 +19°C° 0 mm 1 mps 751 mmHg 61%

    23 April, Tuesday

    Time Temperature Precipitation Wind Pressure Humidity
    00:00 +18°C° 0 mm 1 mps 750 mmHg 61%
    01:00 +16°C° 0 mm 0 mps 750 mmHg 62%
    02:00 +16°C° 0 mm 1 mps 750 mmHg 61%
    03:00 +16°C° 0 mm 1 mps 750 mmHg 60%
    04:00 +16°C° 0 mm 1 mps 750 mmHg 59%
    05:00 +16°C° 0 mm 1 mps 750 mmHg 57%
    06:00 +18°C° 0 mm 1 mps 751 mmHg 55%
    07:00 +19°C° 0 mm 1 mps 751 mmHg 52%
    08:00 +20°C° 0 mm 2 mps 751 mmHg 47%
    09:00 +23°C° 0 mm 2 mps 751 mmHg 42%
    10:00 +25°C° 0 mm 3 mps 751 mmHg 37%
    11:00 +26°C° 0 mm 2 mps 751 mmHg 34%
    12:00 +28°C° 0 mm 2 mps 750 mmHg 31%
    13:00 +30°C° 0 mm 2 mps 750 mmHg 28%
    14:00 +30°C° 0 mm 2 mps 750 mmHg 28%
    15:00 +30°C° 0 mm 2 mps 750 mmHg 28%
    16:00 +31°C° 0 mm 2 mps 749 mmHg 28%
    17:00 +28°C° 0 mm 1 mps 749 mmHg 34%
    18:00 +26°C° 0 mm 1 mps 749 mmHg 40%
    19:00 +24°C° 0 mm 1 mps 750 mmHg 45%
    20:00 +23°C° 0 mm 1 mps 750 mmHg 48%
    21:00 +22°C° 0 mm 1 mps 750 mmHg 50%
    22:00 +21°C° 0 mm 1 mps 750 mmHg 53%
    23:00 +21°C° 0 mm 1 mps 750 mmHg 54%

    24 April, Wednesday

    Time Temperature Precipitation Wind Pressure Humidity
    00:00 +20°C° 0 mm 1 mps 750 mmHg 54%
    01:00 +20°C° 0 mm 1 mps 749 mmHg 55%
    02:00 +17°C° 0 mm 0 mps 749 mmHg 55%
    03:00 +17°C° 0 mm 0 mps 749 mmHg 56%
    04:00 +17°C° 0 mm 0 mps 749 mmHg 56%
    05:00 +17°C° 0 mm 0 mps 750 mmHg 56%
    06:00 +18°C° 0 mm 0 mps 750 mmHg 55%
    07:00 +19°C° 0 mm 0 mps 750 mmHg 54%
    08:00 +23°C° 0 mm 1 mps 750 mmHg 49%
    09:00 +25°C° 0 mm 1 mps 750 mmHg 44%
    10:00 +28°C° 0 mm 1 mps 750 mmHg 39%
    11:00 +29°C° 0 mm 1 mps 750 mmHg 36%
    12:00 +31°C° 0 mm 1 mps 750 mmHg 33%
    13:00 +33°C° 0 mm 1 mps 750 mmHg 31%
    14:00 +32°C° 0 mm 1 mps 749 mmHg 31%
    15:00 +32°C° 0 mm 2 mps 749 mmHg 32%
    16:00 +32°C° 0 mm 2 mps 748 mmHg 33%
    17:00 +30°C° 0 mm 2 mps 748 mmHg 38%
    18:00 +28°C° 0 mm 2 mps 748 mmHg 43%
    19:00 +25°C° 0 mm 2 mps 748 mmHg 49%
    20:00 +24°C° 0 mm 2 mps 749 mmHg 51%
    21:00 +23°C° 0 mm 1 mps 749 mmHg 54%
    22:00 +22°C° 0 mm 1 mps 749 mmHg 56%
    23:00 +21°C° 0 mm 1 mps 748 mmHg 58%
    Show more